Simultaneous Nadir Overpasses (SNOs) Predictions

Prediction of SNOs between NPP and TERRA Satellite Orbit:

Table of predicted SNOs for the next 14.0 days since TLE Epoch: 6/24/2023
Index Date (NPP) Time (NPP) Lat,Lon (NPP) SZA (NPP ) Date (TERRA) Time (TERRA) Lat,Lon (TERRA) SZA (TERRA ) Distance(km) Time Diff (sec)
1 06/25/2023 20:12:23 71.07,-127.76 47.69 06/25/2023 20:13:24 71.06,-127.71 47.67 2.57 61
2 06/25/2023 21:03:04 -70.93, 39.79 132.46 06/25/2023 21:02:50 -70.95, 39.77 132.44 2.19 14
3 06/25/2023 21:53:33 70.02,-151.46 46.60 06/25/2023 21:52:26 70.09,-153.83 46.76 90.08 67
4 06/28/2023 09:06:18 70.99, 38.89 47.70 06/28/2023 09:06:44 70.99, 38.83 47.70 2.25 26
5 06/28/2023 09:57:00 -70.89,-153.64 132.40 06/28/2023 09:56:10 -70.89,-153.68 132.40 1.72 50
6 06/30/2023 21:09:30 -71.07, 37.95 132.07 06/30/2023 21:10:41 -71.05, 37.90 132.10 2.91 71
7 06/30/2023 22:00:14 70.96,-154.56 47.82 06/30/2023 22:00:03 70.94,-154.59 47.81 1.99 11
8 06/30/2023 22:50:47 -70.40, 13.68 132.78 06/30/2023 22:49:37 -70.41, 12.26 132.70 52.79 70
9 07/03/2023 10:03:26 -71.05,-155.51 131.90 07/03/2023 10:03:59 -71.04,-155.47 131.93 2.10 33
10 07/03/2023 10:54:10 70.94, 11.99 47.99 07/03/2023 10:53:21 70.93, 12.03 47.98 2.17 49
11 07/05/2023 22:06:39 71.13,-156.45 48.41 07/05/2023 22:07:49 71.14,-156.30 48.40 5.67 70
12 07/05/2023 22:57:20 -70.98, 11.11 131.75 07/05/2023 22:57:16 -70.99, 11.12 131.74 1.15 4



Historial Predications of SNOs between NPP and TERRA
